Regional Weather Roundup
Issued by NWS

Home | Current Version | Previous Version | Graphics & Text | Print | Product List | Glossary On
Versions: 1 2 3 4 5 6 7 8 9 10 11 12 13 14 15 16 17 18 19 20 21 22 23 24 25 26 27 28
000
ASUS45 KCYS 020210
RWRWY

WYOMING REGIONAL WEATHER ROUNDUP
NATIONAL WEATHER SERVICE CHEYENNE WY
800 PM MDT SUN MAY 01 2016

NOTE:  "FAIR" INDICATES FEW OR NO CLOUDS BELOW 12,000 FEET
WITH NO SIGNIFICANT WEATHER AND/OR OBSTRUCTIONS TO VISIBILITY.

WYZ001-020300-
YELLOWSTONE NATIONAL PARK

CITY           SKY/WX    TMP DP  RH WIND       PRES   REMARKS
LK YELLOWSTONE   N/A     37  22  54 CALM      30.24F
W YELLOWSTONE  NOT AVBL

$$
WYZ002>013-054>058-071-098>099-020300-
NORTHERN WYOMING

CITY           SKY/WX    TMP DP  RH WIND       PRES   REMARKS
JACKSON        CLEAR     48  18  29 NE12G17   30.18R
CODY           FAIR      52  25  35 E8        30.20S
GREYBULL       FAIR      58  23  26 W5        30.18S
WORLAND        FAIR      51  32  48 SW5       30.19S
SHERIDAN       FAIR      53  32  44 NE5       30.21R
BUFFALO          N/A    N/A N/A N/A MISG      30.24R
GILLETTE       FAIR      47  33  58 N5        30.22S
HULETT         FAIR      50  30  46 CALM      30.24R
NEWCASTLE      FAIR      52  27  37 N8        30.21S

$$
WYZ014>020-022>026-101>103-020300-
CENTRAL WYOMING

CITY           SKY/WX    TMP DP  RH WIND       PRES   REMARKS
BIG PINEY      FAIR      43  17  35 SW14      30.22R
PINEDALE       FAIR      45  14  29 E15       30.21R
DUBOIS         NOT AVBL
LANDER         CLOUDY    45  28  51 SW6       30.22F
RIVERTON       FAIR      46  30  53 E5        30.24F
CASPER         FAIR      44  25  47 E6        30.23S
DOUGLAS        FAIR      42  29  59 SW8       30.25R

$$
WYZ021-027>030-104>119-020300-
SOUTHERN WYOMING

CITY           SKY/WX    TMP DP  RH WIND       PRES   REMARKS
EVANSTON       FAIR      41  22  46 E16G28    30.16R
KEMMERER         N/A     37  21  52 E17G24    30.21R WCI  28
FORT BRIDGER   PTCLDY    41  28  60 E12G17    30.22S
ROCK SPRINGS   FAIR      40  24  53 NE23G31   30.19R WCI  30
DIXON          FAIR      48  24  39 NE14      30.13R
RAWLINS        FAIR      35  23  61 E13       30.22S WCI  26
SARATOGA       FAIR      37  23  56 CALM      30.20R
LARAMIE        FAIR      30  22  72 S8        30.25R WCI  22
CHEYENNE       FAIR      36  23  59 SW5       30.26S WCI  32
TORRINGTON     FAIR      45  30  55 E8        30.23R
PINE BLUFFS    FAIR      37  30  75 NW5       30.27S WCI  34

$$




USA.gov is the U.S. government's official web portal to all federal, state and local government web resources and services.